Time,TemperatureF,DewpointF,PressureIn,WindDirection,WindDirectionDegrees,WindSpeedMPH,WindSpeedGustMPH,Humidity,HourlyPrecipIn,Conditions,Clouds,dailyrainin,SoftwareType,DateUTC
2013-02-02 00:01:00,53.0,46.0,29.86,East,90,0.0,0.0,78,0.00,,,0.00,,2013-02-01 22:01:00,
2013-02-02 00:11:00,53.0,46.0,29.86,East,90,0.0,0.0,78,0.00,,,0.00,,2013-02-01 22:11:00,
2013-02-02 00:21:00,53.0,46.0,29.86,NNW,335,1.0,3.0,77,0.00,,,0.00,,2013-02-01 22:21:00,
2013-02-02 00:32:00,53.0,45.0,29.86,NE,54,1.0,3.0,75,0.00,,,0.00,,2013-02-01 22:32:00,
2013-02-02 00:41:00,53.0,45.0,29.86,NE,54,1.0,3.0,75,0.00,,,0.00,,2013-02-01 22:41:00,
2013-02-02 00:51:00,53.0,45.0,29.85,East,84,0.0,1.0,74,0.00,,,0.00,,2013-02-01 22:51:00,
2013-02-02 01:01:00,53.0,45.0,29.85,NE,46,0.0,0.0,75,0.00,,,0.00,,2013-02-01 23:01:00,
2013-02-02 01:11:00,53.0,45.0,29.85,NE,46,0.0,0.0,75,0.00,,,0.00,,2013-02-01 23:11:00,
2013-02-02 01:21:00,52.0,45.0,29.84,East,90,1.0,2.0,76,0.00,,,0.00,,2013-02-01 23:21:00,
2013-02-02 01:31:00,52.0,45.0,29.83,ENE,75,1.0,3.0,76,0.00,,,0.00,,2013-02-01 23:31:00,
2013-02-02 01:41:00,52.0,45.0,29.83,ENE,75,1.0,3.0,76,0.00,,,0.00,,2013-02-01 23:41:00,
2013-02-02 01:52:00,53.0,45.0,29.83,ENE,77,1.0,3.0,75,0.00,,,0.00,,2013-02-01 23:52:00,
2013-02-02 02:01:00,52.0,45.0,29.83,East,96,0.0,2.0,76,0.00,,,0.00,,2013-02-02 00:01:00,
2013-02-02 02:11:00,52.0,45.0,29.83,East,96,0.0,2.0,76,0.00,,,0.00,,2013-02-02 00:11:00,
2013-02-02 02:21:00,53.0,46.0,29.83,SE,125,1.0,3.0,76,0.00,,,0.00,,2013-02-02 00:21:00,
2013-02-02 02:32:00,52.0,45.0,29.83,NE,53,0.0,1.0,77,0.00,,,0.00,,2013-02-02 00:32:00,
2013-02-02 02:41:00,52.0,45.0,29.83,NE,53,0.0,1.0,77,0.00,,,0.00,,2013-02-02 00:41:00,
2013-02-02 02:52:00,52.0,45.0,29.83,North,0,0.0,0.0,78,0.00,,,0.00,,2013-02-02 00:52:00,
2013-02-02 03:01:00,52.0,46.0,29.83,North,0,0.0,0.0,80,0.00,,,0.00,,2013-02-02 01:01:00,
2013-02-02 03:11:00,52.0,46.0,29.83,North,0,0.0,0.0,80,0.00,,,0.00,,2013-02-02 01:11:00,
2013-02-02 03:21:00,52.0,46.0,29.82,North,0,0.0,0.0,81,0.00,,,0.00,,2013-02-02 01:21:00,
2013-02-02 03:31:00,51.0,46.0,29.81,NE,45,0.0,1.0,82,0.00,,,0.00,,2013-02-02 01:31:00,
2013-02-02 03:41:00,51.0,46.0,29.81,NE,45,0.0,1.0,82,0.00,,,0.00,,2013-02-02 01:41:00,
2013-02-02 03:52:00,51.0,46.0,29.81,North,0,0.0,0.0,83,0.00,,,0.00,,2013-02-02 01:52:00,
2013-02-02 04:01:00,51.0,46.0,29.80,North,0,0.0,0.0,83,0.00,,,0.00,,2013-02-02 02:01:00,
2013-02-02 04:11:00,51.0,46.0,29.80,North,0,0.0,0.0,83,0.00,,,0.00,,2013-02-02 02:11:00,
2013-02-02 04:21:00,51.0,46.0,29.80,NE,46,0.0,0.0,84,0.00,,,0.00,,2013-02-02 02:21:00,
2013-02-02 04:31:00,51.0,46.0,29.79,North,0,0.0,0.0,84,0.00,,,0.00,,2013-02-02 02:31:00,
2013-02-02 04:41:00,51.0,46.0,29.79,North,0,0.0,0.0,84,0.00,,,0.00,,2013-02-02 02:41:00,
2013-02-02 04:52:00,51.0,46.0,29.78,NE,45,0.0,1.0,84,0.00,,,0.00,,2013-02-02 02:52:00,
2013-02-02 05:02:00,51.0,46.0,29.78,ENE,72,0.0,1.0,84,0.00,,,0.00,,2013-02-02 03:02:00,
2013-02-02 05:11:00,51.0,46.0,29.78,North,0,0.0,0.0,84,0.00,,,0.00,,2013-02-02 03:11:00,
2013-02-02 05:21:00,51.0,46.0,29.78,North,0,0.0,0.0,84,0.00,,,0.00,,2013-02-02 03:21:00,
2013-02-02 05:32:00,50.0,46.0,29.78,North,0,0.0,0.0,85,0.00,,,0.00,,2013-02-02 03:32:00,
2013-02-02 05:42:00,50.0,46.0,29.78,North,0,0.0,0.0,85,0.00,,,0.00,,2013-02-02 03:42:00,
2013-02-02 05:51:00,50.0,46.0,29.78,North,0,0.0,0.0,85,0.00,,,0.00,,2013-02-02 03:51:00,
2013-02-02 06:01:00,50.0,46.0,29.78,NE,45,0.0,1.0,85,0.00,,,0.00,,2013-02-02 04:01:00,
2013-02-02 06:11:00,50.0,46.0,29.78,NE,45,0.0,1.0,85,0.00,,,0.00,,2013-02-02 04:11:00,
2013-02-02 06:21:00,50.0,46.0,29.77,North,0,0.0,0.0,85,0.00,,,0.00,,2013-02-02 04:21:00,
2013-02-02 06:32:00,50.0,46.0,29.78,NE,45,0.0,0.0,86,0.00,,,0.00,,2013-02-02 04:32:00,
2013-02-02 06:41:00,50.0,46.0,29.78,NE,45,0.0,0.0,86,0.00,,,0.00,,2013-02-02 04:41:00,
2013-02-02 06:51:00,50.0,46.0,29.78,NE,46,0.0,1.0,86,0.00,,,0.00,,2013-02-02 04:51:00,
2013-02-02 07:02:00,50.0,46.0,29.78,North,0,0.0,0.0,86,0.00,,,0.00,,2013-02-02 05:02:00,
2013-02-02 07:11:00,50.0,46.0,29.78,North,0,0.0,0.0,86,0.00,,,0.00,,2013-02-02 05:11:00,
2013-02-02 07:22:00,50.0,46.0,29.78,North,0,0.0,0.0,86,0.00,,,0.00,,2013-02-02 05:22:00,
2013-02-02 07:32:00,50.0,46.0,29.79,North,0,0.0,0.0,87,0.00,,,0.00,,2013-02-02 05:32:00,
2013-02-02 07:41:00,50.0,46.0,29.79,North,0,0.0,0.0,87,0.00,,,0.00,,2013-02-02 05:41:00,
2013-02-02 07:52:00,50.0,47.0,29.79,ESE,104,0.0,2.0,88,0.00,,,0.00,,2013-02-02 05:52:00,
2013-02-02 08:02:00,51.0,48.0,29.79,NNE,25,0.0,0.0,89,0.00,,,0.00,,2013-02-02 06:02:00,
2013-02-02 08:11:00,51.0,48.0,29.79,NNE,25,0.0,0.0,89,0.00,,,0.00,,2013-02-02 06:11:00,
2013-02-02 08:21:00,51.0,48.0,29.79,NE,45,0.0,0.0,88,0.00,,,0.00,,2013-02-02 06:21:00,
2013-02-02 08:31:00,52.0,48.0,29.79,East,98,0.0,2.0,86,0.00,,,0.00,,2013-02-02 06:31:00,
2013-02-02 08:41:00,52.0,48.0,29.79,East,98,0.0,2.0,86,0.00,,,0.00,,2013-02-02 06:41:00,
2013-02-02 08:51:00,54.0,49.0,29.79,ENE,70,0.0,1.0,82,0.00,,,0.00,,2013-02-02 06:51:00,
2013-02-02 09:01:00,56.0,50.0,29.79,East,88,0.0,3.0,80,0.00,,,0.00,,2013-02-02 07:01:00,
2013-02-02 09:11:00,56.0,49.0,29.79,ENE,61,1.0,2.0,78,0.00,,,0.00,,2013-02-02 07:11:00,
2013-02-02 09:21:00,56.0,49.0,29.79,ENE,61,1.0,2.0,78,0.00,,,0.00,,2013-02-02 07:21:00,
2013-02-02 09:31:00,56.0,49.0,29.79,ENE,78,1.0,2.0,78,0.00,,,0.00,,2013-02-02 07:31:00,
2013-02-02 09:41:00,56.0,49.0,29.79,ENE,78,1.0,2.0,78,0.00,,,0.00,,2013-02-02 07:41:00,
2013-02-02 09:51:00,57.0,50.0,29.80,East,85,0.0,2.0,78,0.00,,,0.00,,2013-02-02 07:51:00,
2013-02-02 10:01:00,58.0,50.0,29.79,ENE,68,1.0,2.0,76,0.00,,,0.00,,2013-02-02 08:01:00,
2013-02-02 10:11:00,58.0,50.0,29.79,ENE,68,1.0,2.0,76,0.00,,,0.00,,2013-02-02 08:11:00,
2013-02-02 10:21:00,60.0,51.0,29.79,ENE,72,0.0,2.0,73,0.00,,,0.00,,2013-02-02 08:21:00,
2013-02-02 10:31:00,60.0,51.0,29.78,East,89,2.0,6.0,73,0.00,,,0.00,,2013-02-02 08:31:00,
2013-02-02 10:41:00,60.0,51.0,29.78,East,89,2.0,6.0,73,0.00,,,0.00,,2013-02-02 08:41:00,
2013-02-02 10:52:00,60.0,51.0,29.79,NW,315,2.0,3.0,72,0.00,,,0.00,,2013-02-02 08:52:00,
2013-02-02 11:01:00,64.0,52.0,29.78,SE,134,1.0,3.0,66,0.00,,,0.00,,2013-02-02 09:01:00,
2013-02-02 11:11:00,64.0,52.0,29.78,SE,134,1.0,3.0,66,0.00,,,0.00,,2013-02-02 09:11:00,
2013-02-02 11:22:00,64.0,52.0,29.79,ESE,102,2.0,3.0,65,0.00,,,0.00,,2013-02-02 09:22:00,
2013-02-02 11:31:00,63.0,51.0,29.78,WNW,285,3.0,5.0,66,0.00,,,0.00,,2013-02-02 09:31:00,
2013-02-02 11:41:00,63.0,51.0,29.78,WNW,285,3.0,5.0,66,0.00,,,0.00,,2013-02-02 09:41:00,
2013-02-02 11:51:00,64.0,53.0,29.78,WSW,251,4.0,6.0,67,0.00,,,0.00,,2013-02-02 09:51:00,
2013-02-02 12:01:00,64.0,52.0,29.78,West,262,5.0,9.0,65,0.00,,,0.00,,2013-02-02 10:01:00,
2013-02-02 12:11:00,66.0,53.0,29.78,SW,235,3.0,5.0,63,0.00,,,0.00,,2013-02-02 10:11:00,
2013-02-02 12:21:00,66.0,53.0,29.78,SW,235,3.0,5.0,63,0.00,,,0.00,,2013-02-02 10:21:00,
2013-02-02 12:31:00,67.0,53.0,29.78,NNW,341,1.0,3.0,61,0.00,,,0.00,,2013-02-02 10:31:00,
2013-02-02 12:41:00,67.0,53.0,29.78,NNW,341,1.0,3.0,61,0.00,,,0.00,,2013-02-02 10:41:00,
2013-02-02 12:51:00,67.0,53.0,29.78,North,353,2.0,6.0,61,0.00,,,0.00,,2013-02-02 10:51:00,
2013-02-02 13:01:00,66.0,52.0,29.78,WNW,291,4.0,7.0,60,0.00,,,0.00,,2013-02-02 11:01:00,
2013-02-02 13:11:00,65.0,52.0,29.77,West,261,5.0,11.0,63,0.00,,,0.00,,2013-02-02 11:11:00,
2013-02-02 13:21:00,65.0,52.0,29.77,West,261,5.0,11.0,63,0.00,,,0.00,,2013-02-02 11:21:00,
2013-02-02 13:31:00,65.0,52.0,29.77,West,263,5.0,8.0,63,0.00,,,0.00,,2013-02-02 11:31:00,
2013-02-02 13:41:00,65.0,52.0,29.77,West,263,5.0,8.0,63,0.00,,,0.00,,2013-02-02 11:41:00,
2013-02-02 13:52:00,64.0,51.0,29.77,West,263,7.0,9.0,63,0.00,,,0.00,,2013-02-02 11:52:00,
2013-02-02 14:01:00,64.0,51.0,29.76,WNW,286,7.0,11.0,62,0.00,,,0.00,,2013-02-02 12:01:00,
2013-02-02 14:11:00,64.0,51.0,29.76,WNW,286,7.0,11.0,62,0.00,,,0.00,,2013-02-02 12:11:00,
2013-02-02 14:22:00,67.0,52.0,29.75,West,263,3.0,7.0,58,0.00,,,0.00,,2013-02-02 12:22:00,
2013-02-02 14:32:00,67.0,52.0,29.75,WSW,244,4.0,8.0,59,0.00,,,0.00,,2013-02-02 12:32:00,
2013-02-02 14:42:00,67.0,52.0,29.75,WSW,244,4.0,8.0,59,0.00,,,0.00,,2013-02-02 12:42:00,
2013-02-02 14:52:00,67.0,52.0,29.75,WSW,244,4.0,8.0,59,0.00,,,0.00,,2013-02-02 12:52:00,
2013-02-02 15:02:00,67.0,52.0,29.75,WSW,244,4.0,8.0,59,0.00,,,0.00,,2013-02-02 13:02:00,
2013-02-02 15:11:00,67.0,52.0,29.75,WSW,244,4.0,8.0,59,0.00,,,0.00,,2013-02-02 13:11:00,
2013-02-02 16:33:00,64.0,53.0,29.73,WSW,244,2.0,3.0,68,0.00,,,0.00,,2013-02-02 14:33:00,
2013-02-02 16:42:00,64.0,53.0,29.73,WSW,244,2.0,3.0,68,0.00,,,0.00,,2013-02-02 14:42:00,
2013-02-02 16:52:00,64.0,52.0,29.73,WSW,243,2.0,3.0,66,0.00,,,0.00,,2013-02-02 14:52:00,
2013-02-02 17:02:00,63.0,54.0,29.72,WSW,238,2.0,4.0,72,0.00,,,0.00,,2013-02-02 15:02:00,
2013-02-02 17:11:00,63.0,54.0,29.72,WSW,238,2.0,4.0,72,0.00,,,0.00,,2013-02-02 15:11:00,
2013-02-02 17:21:00,63.0,56.0,29.72,WNW,300,2.0,4.0,77,0.00,,,0.00,,2013-02-02 15:21:00,
2013-02-02 17:32:00,62.0,56.0,29.72,WNW,292,4.0,8.0,82,0.00,,,0.00,,2013-02-02 15:32:00,
2013-02-02 17:41:00,62.0,56.0,29.72,WNW,292,4.0,8.0,82,0.00,,,0.00,,2013-02-02 15:41:00,
2013-02-02 17:52:00,62.0,57.0,29.72,West,276,2.0,3.0,83,0.00,,,0.00,,2013-02-02 15:52:00,
2013-02-02 18:01:00,61.0,55.0,29.71,WSW,252,2.0,4.0,82,0.00,,,0.00,,2013-02-02 16:01:00,
2013-02-02 18:11:00,61.0,55.0,29.71,WSW,252,2.0,4.0,82,0.00,,,0.00,,2013-02-02 16:11:00,
2013-02-02 18:21:00,61.0,56.0,29.72,ESE,109,2.0,3.0,83,0.00,,,0.00,,2013-02-02 16:21:00,
2013-02-02 18:31:00,61.0,57.0,29.73,NW,323,1.0,3.0,86,0.00,,,0.00,,2013-02-02 16:31:00,
2013-02-02 18:42:00,61.0,57.0,29.73,NW,323,1.0,3.0,86,0.00,,,0.00,,2013-02-02 16:42:00,
2013-02-02 18:52:00,60.0,56.0,29.73,SSE,159,1.0,3.0,86,0.00,,,0.00,,2013-02-02 16:52:00,
2013-02-02 19:01:00,60.0,56.0,29.73,WNW,294,2.0,6.0,87,0.00,,,0.00,,2013-02-02 17:01:00,
2013-02-02 19:11:00,60.0,56.0,29.73,WNW,294,2.0,6.0,87,0.00,,,0.00,,2013-02-02 17:11:00,
2013-02-02 19:21:00,61.0,56.0,29.74,West,263,2.0,4.0,83,0.00,,,0.00,,2013-02-02 17:21:00,
2013-02-02 19:31:00,61.0,56.0,29.74,ESE,102,2.0,5.0,85,0.00,,,0.00,,2013-02-02 17:31:00,
2013-02-02 19:41:00,61.0,56.0,29.74,ESE,102,2.0,5.0,85,0.00,,,0.00,,2013-02-02 17:41:00,
2013-02-02 19:52:00,61.0,56.0,29.74,NNW,327,1.0,3.0,85,0.00,,,0.00,,2013-02-02 17:52:00,
2013-02-02 20:01:00,60.0,55.0,29.74,SE,131,1.0,3.0,84,0.00,,,0.00,,2013-02-02 18:01:00,
2013-02-02 20:11:00,60.0,55.0,29.74,SE,131,1.0,3.0,84,0.00,,,0.00,,2013-02-02 18:11:00,
2013-02-02 20:21:00,60.0,56.0,29.74,SSW,213,1.0,3.0,86,0.00,,,0.00,,2013-02-02 18:21:00,
2013-02-02 20:31:00,60.0,56.0,29.74,WSW,240,2.0,3.0,86,0.00,,,0.00,,2013-02-02 18:31:00,
2013-02-02 20:41:00,60.0,56.0,29.74,WSW,240,2.0,3.0,86,0.00,,,0.00,,2013-02-02 18:41:00,
2013-02-02 20:52:00,60.0,55.0,29.74,WNW,290,2.0,6.0,85,0.00,,,0.00,,2013-02-02 18:52:00,
2013-02-02 21:01:00,60.0,55.0,29.74,West,280,4.0,9.0,85,0.00,,,0.00,,2013-02-02 19:01:00,
2013-02-02 21:11:00,61.0,55.0,29.75,WNW,294,6.0,12.0,82,0.00,,,0.00,,2013-02-02 19:11:00,
2013-02-02 21:21:00,61.0,55.0,29.75,WNW,294,6.0,12.0,82,0.00,,,0.00,,2013-02-02 19:21:00,
2013-02-02 21:31:00,60.0,54.0,29.75,WNW,295,3.0,6.0,82,0.00,,,0.00,,2013-02-02 19:31:00,
2013-02-02 21:41:00,60.0,54.0,29.75,WNW,295,3.0,6.0,82,0.00,,,0.00,,2013-02-02 19:41:00,
2013-02-02 21:52:00,60.0,55.0,29.76,North,3,2.0,7.0,84,0.00,,,0.00,,2013-02-02 19:52:00,
2013-02-02 22:01:00,61.0,55.0,29.77,West,275,5.0,9.0,80,0.00,,,0.00,,2013-02-02 20:01:00,
2013-02-02 22:11:00,61.0,55.0,29.77,West,275,5.0,9.0,80,0.00,,,0.00,,2013-02-02 20:11:00,
2013-02-02 22:21:00,61.0,54.0,29.77,West,279,6.0,8.0,78,0.00,,,0.00,,2013-02-02 20:21:00,
2013-02-02 22:31:00,61.0,55.0,29.76,West,266,8.0,12.0,80,0.00,,,0.00,,2013-02-02 20:31:00,
2013-02-02 22:41:00,61.0,55.0,29.76,West,266,8.0,12.0,80,0.00,,,0.00,,2013-02-02 20:41:00,
2013-02-02 22:52:00,60.0,54.0,29.77,West,274,6.0,11.0,81,0.00,,,0.00,,2013-02-02 20:52:00,
2013-02-02 23:01:00,60.0,55.0,29.77,West,270,4.0,9.0,83,0.00,,,0.00,,2013-02-02 21:01:00,
2013-02-02 23:11:00,60.0,55.0,29.77,West,270,4.0,9.0,83,0.00,,,0.00,,2013-02-02 21:11:00,
2013-02-02 23:21:00,60.0,53.0,29.77,SW,222,3.0,6.0,79,0.00,,,0.00,,2013-02-02 21:21:00,
2013-02-02 23:32:00,60.0,54.0,29.77,South,174,2.0,6.0,81,0.00,,,0.00,,2013-02-02 21:32:00,
2013-02-02 23:42:00,60.0,54.0,29.77,South,174,2.0,6.0,81,0.00,,,0.00,,2013-02-02 21:42:00,
2013-02-02 23:52:00,60.0,56.0,29.77,WNW,288,3.0,6.0,86,0.00,,,0.00,,2013-02-02 21:52:00,